Notices

What's New in latest Release from April 7th, 2021:

- Updated Glossary, including Speed of Maximum Gust, and Total Hourly Precipitation

- Updated national and regional climate services offices contacts and prices information

- Addition of station inventory lists for 1981-2010, 1971-2000, and 1961-1990 Normals.

If you haven't already, please take our survey and provide feedback about our website: https://eccc.sondage-survey.ca/f/LanguageSelection.aspx?s=442ca660-fcf1-47c0-95a9-59707d6fd709

Hourly Data Report for February 21, 2017

TORONTO INTL A
ONTARIO

43°40'36.000" N
79°37'50.000" W
173.40 m
6158731
71624
YYZ

Download Data

Hourly Data (February 2017)
Hourly Data Report for February 21, 2017
TIME
LST
Temp Definition
°C
Dew Point Definition
°C
Rel Hum Definition
%
Precip. Amount Definition
mm

Wind Dir Definition
10's deg

Wind Spd Definition
km/h
Visibility Definition
km
Stn Press Definition
kPa
Hmdx Definition


Wind Chill Definition


Weather Definition


00:00 1.0 -7.5 53   11 17 24.1 100.39     LegendNANA
01:00 0.8 -7.5 54   11 17 24.1 100.31     Mostly Cloudy
02:00 0.8 -6.6 58   11 15 24.1 100.24     LegendNANA
03:00 0.9 -6.7 57   10 14 24.1 100.17     LegendNANA
04:00 0.9 -6.9 56   9 10 24.1 100.04     Cloudy
05:00 0.8 -5.9 61   10 15 24.1 99.90     LegendNANA
06:00 1.2 -4.9 64   8 13 24.1 99.82     LegendNANA
07:00 1.2 -4.1 68   9 11 24.1 99.79     Cloudy
08:00 1.5 -3.6 69   10 6 24.1 99.75     LegendNANA
09:00 2.4 -3.1 67   8 8 24.1 99.68     LegendNANA
10:00 3.5 -3.1 62   16 7 24.1 99.59     Cloudy
11:00 4.1 -2.3 63   13 10 24.1 99.50     LegendNANA
12:00 4.2 -2.0 64   13 8 24.1 99.48     LegendNANA
13:00 4.9 -1.3 64   15 7 24.1 99.40     Cloudy
14:00 5.5 -1.0 63   15 8 24.1 99.33     LegendNANA
15:00 4.7 1.9 82   16 9 9.7 99.32     Rain,Fog
16:00 3.7 2.1 89   14 9 24.1 99.20     Rain
17:00 3.7 1.9 88   17 8 24.1 99.33     LegendNANA
18:00 3.4 1.5 87   13 6 17.7 99.30     LegendNANA
19:00 3.5 1.9 89   18 5 24.1 99.30     Mostly Cloudy
20:00 3.5 2.3 92   36 2 24.1 99.33     LegendNANA
21:00 3.8 2.3 90   14 4 19.3 99.36     LegendNANA
22:00 3.3 1.8 90   0 1 16.1 99.32     Mostly Cloudy
23:00 3.7 2.2 90   6 8 16.1 99.32     LegendNANA

Notes on Data Quality.

Legend

  • E = Estimated
  • M = Missing
  • NA = Not Available*
  • [empty] = Indicates an unobserved value
Date modified: